| time (UTC) | temp F | wind direction | speed MPH | gust MPH | rain 1hr in | rain 24hr in | rain mn in | humidity % | barometer mb |
| 20260509213017 | 74 | 295 | 4.0 | 15.0 | 0.00 | 0.00 | 0.00 | 29 | 1005.1 |
| 20260509211513 | 74 | 308 | 4.0 | 20.0 | 0.00 | 0.00 | 0.00 | 29 | 1004.8 |
| 20260509210008 | 74 | 246 | 4.0 | 18.0 | 0.00 | 0.00 | 0.00 | 30 | 1004.8 |
| 20260509203023 | 74 | 331 | 7.0 | 16.0 | 0.00 | 0.00 | 0.00 | 30 | 1004.8 |
| 20260509200019 | 73 | 360 | 4.0 | 14.0 | 0.00 | 0.00 | 0.00 | 31 | 1005.0 |
| 20260509194516 | 72 | 329 | 4.0 | 17.0 | 0.00 | 0.00 | 0.00 | 30 | 1005.1 |
| 20260509193014 | 72 | 338 | 7.0 | 12.0 | 0.00 | 0.00 | 0.00 | 31 | 1005.0 |
| 20260509191508 | 71 | 221 | 6.0 | 17.0 | 0.00 | 0.00 | 0.00 | 30 | 1005.1 |
| 20260509190040 | 72 | 346 | 3.0 | 11.0 | 0.00 | 0.00 | 0.00 | 30 | 1005.0 |
| 20260509184529 | 73 | 228 | 3.0 | 12.0 | 0.00 | 0.00 | 0.00 | 27 | 1004.9 |
| 20260509183026 | 72 | 225 | 4.0 | 10.0 | 0.00 | 0.00 | 0.00 | 31 | 1004.8 |
| 20260509180016 | 72 | 294 | 3.0 | 12.0 | 0.00 | 0.00 | 0.00 | 33 | 1004.9 |
| 20260509174527 | 73 | 290 | 4.0 | 12.0 | 0.00 | 0.00 | 0.00 | 33 | 1005.0 |
| 20260509173024 | 73 | 346 | 4.0 | 9.0 | 0.00 | 0.00 | 0.00 | 33 | 1005.0 |
| 20260509171525 | 72 | 328 | 3.0 | 12.0 | 0.00 | 0.00 | 0.00 | 34 | 1005.0 |
| 20260509170029 | 71 | 307 | 3.0 | 8.0 | 0.00 | 0.00 | 0.00 | 48 | 1005.0 |
| 20260509164520 | 70 | 281 | 2.0 | 6.0 | 0.00 | 0.00 | 0.00 | 49 | 1005.1 |
| 20260509163017 | 68 | 213 | 3.0 | 6.0 | 0.00 | 0.00 | 0.00 | 55 | 1005.1 |
| 20260509161524 | 67 | 245 | 2.0 | 8.0 | 0.00 | 0.00 | 0.00 | 55 | 1005.1 |
| 20260509160007 | 66 | 212 | 3.0 | 9.0 | 0.00 | 0.00 | 0.00 | 56 | 1005.1 |
| 20260509154506 | 65 | 332 | 1.0 | 6.0 | 0.00 | 0.00 | 0.00 | 62 | 1005.1 |
| 20260509153006 | 65 | 223 | 4.0 | 8.0 | 0.00 | 0.00 | 0.00 | 61 | 1005.2 |
| 20260509151503 | 63 | 278 | 1.0 | 8.0 | 0.00 | 0.00 | 0.00 | 68 | 1005.3 |
| 20260509150006 | 62 | 329 | 1.0 | 7.0 | 0.00 | 0.00 | 0.00 | 70 | 1005.3 |
| 20260509144509 | 61 | 256 | 2.0 | 10.0 | 0.00 | 0.00 | 0.00 | 72 | 1005.3 |
| 20260509143013 | 60 | 313 | 2.0 | 9.0 | 0.00 | 0.00 | 0.00 | 74 | 1005.3 |
| 20260509141518 | 60 | 221 | 3.0 | 7.0 | 0.00 | 0.00 | 0.00 | 77 | 1005.0 |
| 20260509140007 | 59 | 254 | 3.0 | 8.0 | 0.00 | 0.00 | 0.00 | 78 | 1005.2 |
| 20260509134504 | 58 | 180 | 3.0 | 6.0 | 0.00 | 0.00 | 0.00 | 80 | 1005.0 |
| 20260509133010 | 57 | 175 | 2.0 | 6.0 | 0.00 | 0.00 | 0.00 | 82 | 1004.9 |
| 20260509131514 | 56 | 231 | 2.0 | 8.0 | 0.00 | 0.00 | 0.00 | 83 | 1005.2 |
| 20260509130011 | 55 | 222 | 3.0 | 6.0 | 0.00 | 0.00 | 0.00 | 85 | 1005.2 |
| 20260509124511 | 54 | 213 | 3.0 | 5.0 | 0.00 | 0.00 | 0.00 | 88 | 1005.2 |
| 20260509123017 | 53 | 242 | 1.0 | 4.0 | 0.00 | 0.00 | 0.00 | 91 | 1005.0 |
| 20260509120010 | 51 | 194 | 1.0 | 4.0 | 0.00 | 0.00 | 0.00 | 92 | 1005.0 |
| 20260509114503 | 51 | 227 | 1.0 | 4.0 | 0.00 | 0.00 | 0.00 | 92 | 1005.0 |
| 20260509113012 | 51 | 224 | 1.0 | 5.0 | 0.00 | 0.00 | 0.00 | 92 | 1004.7 |
| 20260509111510 | 51 | 205 | 2.0 | 4.0 | 0.00 | 0.00 | 0.00 | 92 | 1004.5 |
| 20260509110018 | 51 | 236 | 0.0 | 5.0 | 0.00 | 0.00 | 0.00 | 92 | 1004.9 |
| 20260509104510 | 51 | 210 | 2.0 | 5.0 | 0.00 | 0.00 | 0.00 | 92 | 1004.5 |
| 20260509103004 | 51 | 209 | 1.0 | 5.0 | 0.00 | 0.00 | 0.00 | 92 | 1004.4 |
| 20260509101521 | 51 | 214 | 1.0 | 5.0 | 0.00 | 0.00 | 0.00 | 92 | 1004.3 |
| 20260509100019 | 51 | 196 | 1.0 | 2.0 | 0.00 | 0.00 | 0.00 | 91 | 1004.5 |
| 20260509094517 | 51 | 205 | 0.0 | 3.0 | 0.00 | 0.00 | 0.00 | 91 | 1004.7 |
| 20260509093019 | 51 | 207 | 0.0 | 3.0 | 0.00 | 0.00 | 0.00 | 91 | 1004.7 |
| 20260509091510 | 51 | 211 | 0.0 | 2.0 | 0.00 | 0.00 | 0.00 | 91 | 1005.0 |
| 20260509090007 | 51 | 221 | 1.0 | 3.0 | 0.00 | 0.00 | 0.00 | 91 | 1005.0 |
| 20260509084516 | 51 | 213 | 1.0 | 3.0 | 0.00 | 0.00 | 0.00 | 91 | 1005.1 |
| 20260509083019 | 50 | 213 | 0.0 | 2.0 | 0.00 | 0.00 | 0.00 | 90 | 1005.2 |
| 20260509080013 | 50 | 200 | 0.0 | 2.0 | 0.00 | 0.00 | 0.00 | 89 | 1005.1 |
| 20260509073009 | 51 | 200 | 0.0 | 2.0 | 0.00 | 0.00 | 0.00 | 88 | 1005.4 |
| 20260509071519 | 52 | 193 | 0.0 | 2.0 | 0.00 | 0.00 | 0.00 | 87 | 1005.4 |
| 20260509064520 | 53 | 230 | 0.0 | 2.0 | 0.00 | 0.00 | 0.00 | 85 | 1006.0 |
| 20260509063015 | 53 | 214 | 0.0 | 4.0 | 0.00 | 0.00 | 0.00 | 85 | 1006.0 |
| 20260509061512 | 53 | 214 | 1.0 | 3.0 | 0.00 | 0.00 | 0.00 | 84 | 1006.2 |
| 20260509060010 | 54 | 211 | 1.0 | 3.0 | 0.00 | 0.00 | 0.00 | 84 | 1006.3 |
| 20260509054532 | 54 | 213 | 0.0 | 6.0 | 0.00 | 0.00 | 0.00 | 83 | 1006.5 |
| 20260509053059 | 55 | 184 | 2.0 | 5.0 | 0.00 | 0.00 | 0.00 | 83 | 1006.5 |
| 20260509051525 | 55 | 221 | 2.0 | 5.0 | 0.00 | 0.00 | 0.00 | 82 | 1006.5 |
| 20260509050036 | 55 | 218 | 0.0 | 5.0 | 0.00 | 0.00 | 0.00 | 81 | 1006.5 |
| 20260509044521 | 56 | 196 | 1.0 | 4.0 | 0.00 | 0.00 | 0.00 | 79 | 1006.5 |
| 20260509043010 | 56 | 204 | 1.0 | 6.0 | 0.00 | 0.00 | 0.00 | 78 | 1006.4 |
| 20260509041522 | 57 | 205 | 1.0 | 5.0 | 0.00 | 0.00 | 0.00 | 76 | 1006.6 |
| 20260509040021 | 57 | 183 | 2.0 | 6.0 | 0.00 | 0.00 | 0.00 | 74 | 1006.7 |
| 20260509034524 | 58 | 205 | 2.0 | 9.0 | 0.00 | 0.00 | 0.00 | 72 | 1006.8 |
| 20260509033018 | 58 | 239 | 1.0 | 5.0 | 0.00 | 0.00 | 0.00 | 70 | 1006.6 |
| 20260509031518 | 59 | 221 | 1.0 | 6.0 | 0.00 | 0.00 | 0.00 | 69 | 1006.7 |
| 20260509030026 | 59 | 229 | 1.0 | 8.0 | 0.00 | 0.00 | 0.00 | 68 | 1006.7 |
| 20260509024525 | 59 | 196 | 3.0 | 9.0 | 0.00 | 0.00 | 0.00 | 66 | 1006.7 |
| 20260509023029 | 59 | 209 | 1.0 | 4.0 | 0.00 | 0.00 | 0.00 | 64 | 1006.7 |
| 20260509021525 | 58 | 200 | 0.0 | 1.0 | 0.00 | 0.00 | 0.00 | 64 | 1006.6 |
| 20260509020020 | 59 | 193 | 0.0 | 0.0 | 0.00 | 0.00 | 0.00 | 63 | 1006.5 |
| 20260509014520 | 61 | 193 | 0.0 | 2.0 | 0.00 | 0.00 | 0.00 | 61 | 1006.4 |
| 20260509013028 | 61 | 221 | 0.0 | 1.0 | 0.00 | 0.00 | 0.00 | 59 | 1006.4 |
| 20260509011527 | 63 | 232 | 0.0 | 4.0 | 0.00 | 0.00 | 0.00 | 54 | 1006.4 |
| 20260509010013 | 63 | 250 | 0.0 | 4.0 | 0.00 | 0.00 | 0.00 | 51 | 1006.2 |
| 20260509004506 | 64 | 236 | 1.0 | 4.0 | 0.00 | 0.00 | 0.00 | 50 | 1006.4 |
| 20260509003004 | 65 | 217 | 1.0 | 4.0 | 0.00 | 0.00 | 0.00 | 48 | 1006.4 |
| 20260509001504 | 65 | 220 | 1.0 | 3.0 | 0.00 | 0.00 | 0.00 | 47 | 1006.5 |
| 20260509000006 | 65 | 230 | 0.0 | 3.0 | 0.00 | 0.00 | 0.00 | 47 | 1006.5 |
| 20260508233012 | 66 | 237 | 1.0 | 4.0 | 0.00 | 0.00 | 0.00 | 45 | 1006.6 |
| 20260508231510 | 66 | 196 | 2.0 | 6.0 | 0.00 | 0.00 | 0.00 | 46 | 1006.6 |
| 20260508230009 | 66 | 214 | 3.0 | 7.0 | 0.00 | 0.00 | 0.00 | 46 | 1006.6 |
| 20260508224505 | 67 | 230 | 1.0 | 6.0 | 0.00 | 0.00 | 0.00 | 45 | 1006.6 |
| 20260508223003 | 68 | 95 | 2.0 | 8.0 | 0.00 | 0.00 | 0.00 | 45 | 1006.8 |
| 20260508220017 | 68 | 229 | 1.0 | 3.0 | 0.00 | 0.00 | 0.00 | 46 | 1006.9 |